FLOCK 4E'-8 (46816 NORAD) Tracking and Keplerian Element Data

This shows tracking and keplerian element data for the satellite.

Feedback or suggestion? Click here.




ElementValue
Catalog46816
NameFLOCK 4E'-8
Epoch Orbit427
Epoch Day331.11691252
Epoch Year2020
RAAN31.2386
Inclination97.499
Eccentricity0.001035
Argument of Perigee212.9724
Mean Anonmoly230.5782
Mean Motion15.16131824
Decay Rate4.295E-05
L11 46816U 20077D 20331.11691252 .00004295 00000-0 22602-3 0 9992
L22 46816 97.4990 31.2386 0010350 212.9724 230.5782 15.16131824 4276

Live tracking and technical data element details for FLOCK 4E'-8 (NORAD 46816). FLOCK 4E'-8 can be tracked NOW for your location showing map with azimuth and elevation plus other details from your city location.

Track the satellite on the map from your city or location and see movement details for azimuth, elevation, latitude, longitude, range, height, and movement on the map or in text.







IsCatalogInMostPopularTable: catalog: 46816, numindb: 8
Update: records affected: 1



GetName: 46816 FLOCK 4E'-8

Hit Count: updated at: Thu, 26 Nov 2020 20:40:39 GMT